Regional Weather Roundup
Issued by NWS

Home | Current Version | Previous Version | Text Only | Print | Product List | Glossary On
Versions: 1 2 3 4 5 6 7 8 9 10 11 12 13 14 15 16 17 18 19 20 21 22 23 24 25 26 27 28 29 30 31 32 33 34 35 36 37 38 39 40 41 42 43 44 45 46 47 48 49 50
000
ASUS43 KDTX 291601
RWRMI
MICHIGAN HOURLY REGIONAL WEATHER ROUNDUP
NATIONAL WEATHER SERVICE DETROIT/PONTIAC MI
1200 PM EDT MON JUN 29 2015

NOTE: "FAIR" INDICATES FEW OR NO CLOUDS BELOW 12,000 FEET WITH NO
SIGNIFICANT WEATHER AND/OR OBSTRUCTION TO VISIBILITY.

MIZ047>049-052>055-059>063-066>070-074>076-081>083-291700-
SOUTHEAST LOWER MICHIGAN

CITY           SKY/WX    TMP DP  RH WIND       PRES   REMARKS
ADRIAN         CLOUDY    68  57  68 S13       29.90R
ALMA           SUNNY     76  57  52 SE6       29.86S
ANN ARBOR      CLOUDY    71  61  70 S9        29.88S
BAD AXE        SUNNY     77  52  42 S5        29.88S
CARO           SUNNY     77  57  50 SE9       29.87S
DETROIT CITY   PTSUNNY   75  56  51 SW9       29.88S
DETROIT        PTSUNNY   75  58  55 S17       29.89R
FLINT          MOSUNNY   77  54  44 VRB5      29.87S
GROSSE ILE       N/A    N/A N/A N/A S10       29.88
HILLSDALE      PTSUNNY   70  60  69 S10       29.88S
HOWELL         MOSUNNY   75  58  57 S9        29.87S

CITY           SKY/WX    TMP DP  RH WIND       PRES   REMARKS
JACKSON        PTSUNNY   70  61  73 S8        29.87F
LAMBERTVILLE   CLOUDY    69  59  70 S3        29.90S
LANSING        MOSUNNY   75  59  57 S8        29.86F
LAPEER         FAIR      75  53  45 S6        29.88S
MASON          MOSUNNY   70  60  70 SE5       29.87S
MONROE         CLOUDY    71  60  68 SW7       29.88S
MT. CLEMENS    PTSUNNY   73  62  68 SE9       29.88F
PONTIAC        PTSUNNY   74  56  53 S10       29.87S
PORT HOPE        N/A     68  62  81 E5        29.87S
PORT HURON     MOSUNNY   75  57  53 SE3       29.89S
TRI CITIES     SUNNY     79  54  41 SE7       29.87R
MIDLAND        FAIR      79  51  38 S7        29.85S
TROY           PTSUNNY   78  55  44 S7        29.89F
SAGINAW HB     SUNNY     77  54  44 SE9       29.86S
$$
MIZ043>046-050>051-056>058-064>065-071>073-077>080-291700-
SOUTHWEST LOWER MICHIGAN

CITY           SKY/WX    TMP DP  RH WIND       PRES   REMARKS
BATTLE CREEK   CLOUDY    71  61  70 S7        29.86S
BENTON HARBOR  CLOUDY    70  61  73 S6        29.82F
BIG RAPIDS     SUNNY     75  53  45 S6        29.84F
COLDWATER      CLOUDY    70  57  63 SE8       29.86S
FREMONT        FAIR      75  54  47 SE6       29.83F
HOLLAND        PTSUNNY   75  61  61 SE9       29.84S
GRAND RAPIDS   PTSUNNY   73  59  61 S7        29.84F
IONIA          FAIR     N/A N/A N/A S5        29.84F
KALAMAZOO      CLOUDY    71  60  68 S8        29.85F
LUDINGTON      SUNNY     76  60  57 W6        29.84S
MARSHALL       CLOUDY    69  61  75 SE3       29.86S
MOUNT PLEASANT SUNNY     78  55  44 SE8       29.85S
MUSKEGON       PTSUNNY   74  60  61 SW9       29.83F
SOUTH HAVEN    CLOUDY    71  61  69 SE8       29.83S
$$
MIZ016>042-291700-
NORTHERN LOWER MICHIGAN

CITY           SKY/WX    TMP DP  RH WIND       PRES   REMARKS
ALPENA         SUNNY     78  48  34 VRB5      29.85
BEAVER ISLAND  SUNNY     74  52  46 SW6       29.82F
BELLAIRE       SUNNY     76  45  33 S3        29.83F
CADILLAC       SUNNY     76  55  47 S7        29.85S
CHARLEVOIX     SUNNY     75  45  34 SW3       29.86F
FRANKFORT      SUNNY     79  44  28 CALM      29.82F
GAYLORD        SUNNY     75  48  38 S9        29.86S
GRAYLING       SUNNY     76  51  41 SW3       29.86F
HARBOR SPRINGS SUNNY     74  49  40 SW6       29.83F
HOUGHTON LAKE  SUNNY     75  51  43 SE8       29.86F
MANISTEE       SUNNY     73  55  53 SE5       29.83F
OSCODA         SUNNY     75  51  43 E9        29.86S
PELLSTON       SUNNY     77  45  32 SW10      29.83F
ROGERS CITY    SUNNY     74  51  44 N8        29.84F
TRAVERSE CITY  MOSUNNY   78  49  35 W7        29.81F
$$
MIZ007>008-015-291700-
EASTERN UPPER MICHIGAN

CITY           SKY/WX    TMP DP  RH WIND       PRES   REMARKS
KINROSS        SUNNY     75  55  50 S7        29.82S
MACKINAC ISLAN SUNNY     70  50  48 W7        29.82F
NEWBERRY       SUNNY     73  61  64 SW8       29.80F
S. S. MARIE    SUNNY     75  57  53 CALM      29.80F
MUNISING         N/A     78  59  51 VRB5      29.76F
$$
MIZ004>006-011>014-085-291700-
CENTRAL UPPER MICHIGAN

CITY           SKY/WX    TMP DP  RH WIND       PRES   REMARKS
MANISTIQUE     SUNNY     67  56  70 S9        29.81S
ESCANABA       SUNNY     72  57  60 S10       29.79F
MENOMINEE      PTSUNNY   72  59  64 S8        29.80S
SAWYER-GWINN   MOSUNNY   73  57  56 SW12      29.79F
$$
MIZ001>003-009>011-084-291700-
WESTERN UPPER MICHIGAN

CITY           SKY/WX    TMP DP  RH WIND       PRES   REMARKS
IRON MOUNTAIN  MOSUNNY   73  59  61 S3        29.78F
HOUGHTON       MOSUNNY   73  60  63 W9        29.75F
COPPER HARBOR    N/A     59  54  83 NE3       29.75S
IRONWOOD       SUNNY     72  63  73 W10       29.75F
$$

ABBREVIATIONS USED IN REMARKS
   TC - TEMPERATURE IN CELSIUS
  WCI - WIND CHILL INDEX
   HX - HEAT INDEX
  VSB - VISIBILITY




USA.gov is the U.S. government's official web portal to all federal, state and local government web resources and services.